STARLINK-11629, 63104

Orbit data source: Space-Track

STARLINK-11629, 63104 is a payload satellite owned by SpaceX/Seattle (US) in LEO that was launched on Thu, 27 Feb 2025 UTC via an FALCON 9 launch vehicle from the Air Force Eastern Test Range (AFETR). Payload-class satellites include a variety of spacecraft equipped with specific instruments for various scientific and technological missions. These include communications satellites like Starlink; space stations such as the ISS; scientific satellites like the Hubble; Earth observation satellites from companies like Planet Labs, Umbra, and HawkEye 360; GPS; miniature CubeSats for education and research; and military/defense satellites.

Loading next visibility...
Identifier
63104, 2025-039A
Orbit
LEO
Country
Flag of USUS
Related business
Manufacturer
SpaceX/Seattle
Mission
Operational Commercial Communications
Bus & Motor
STARLINK V2MD, Unknown motor
Mass
960 kg wet, ~910 kg dry
Launch date (UTC)
2025-02-27 (8 months ago)
Launch vehicle
FALCON 9
Launch site
Air Force Eastern Test Range (AFETR)
Object type
Payload
Rocket body
Debris
Shape & HBR
Box + 2 Pan, 18.1 m
Radar Cross Section
36.964 m², Large (>1 m²)

Expand to show TLE details & history
Last TLE update: 1 day ago

TLE from 1 day ago
0 STARLINK-11629
1 63104U 25039A   25304.66668980  .00031342  00000-0  24685-3 0  9997
2 63104  42.9997 294.3267 0001669 261.9655 185.0594 15.70838258  5986
Epoch: 2025-10-31T16:00Z
TLE epoch observation values (Epoch: 2025-10-31T16:00:01.998Z)
Latitude
43.08836°
Longitude
100.0391°
Altitude
360.724 km
Speed
7.698 km/s
True Right ascension
01h 21m 01s
True Declination
42° 54' 24"
Sunlit
Object was in full shadow at epoch
Visualization orbit readout
Latitude
Unknown
Longitude
Unknown
Altitude
Unknown
Speed
Unknown
Apparent Right ascension
Unknown
Apparent Declination
Unknown
Sunlit
N/A
Visualization observer readout
Local Sidereal Time
11:28:17
Azimuth
Unknown
Elevation
Unknown
Doppler factor
Unknown
Orbital elements
Apogee altitude
359.606 km
Perigee altitude
357.357 km
Semi-major axis
6,736.619 km
Eccentricity
0.00017
Inclination
42.9997°
RAAN
294.3267°
Arg. of periapsis
261.9655°
True anomaly
185.05771°
Mean anomaly
185.0594°
Eccentric anomaly
185.05856°
Mean motion
3.92537 °/min
Orbital period
91.71 mins
BSTAR
0.00024685
Loading maneuver chart data...
Computing Atmospheric mass density...
Loading historical data...
Loading historical data...
Loading historical data...
Loading historical data...
Loading historical data...
Loading historical data...
Loading historical data...

Documentation

Showing up to 5 results
|